Location: *
(42.0175°N, 9.4056°E)
Time: 23:05:12
(UTC+00:00)

Cosmos 2184 Rocket - Pass Details

Date: 25 August 2019
Orbit: 958 x 1003 km, 82.9° (Epoch: 18 September)

Event Time Altitude Azimuth Distance (km) Brightness Sun altitude
Rises 20:31:33 0° 356° (N) 3,651 7.7 -24.1°
Reaches altitude 10° 20:34:08 10° 1° (N) 2,700 6.8 -24.5°
Maximum altitude 20:40:10 55° 79° (ENE) 1,148 4.1 -25.3°
Enters shadow 20:40:37 53° 95° (E) 1,161 4.1 -25.3°
